Location: Chena
(64.8152°N, 147.9227°W)
Time: 18:33:30
(UTC+00:00)

Vanguard 2 - Pass Details

Date: 06 March 2021
Orbit: 552 x 2938 km, 32.9° (Epoch: 11 April)

Event Time Altitude Azimuth Distance (km) Brightness Sun altitude
Exits shadow 12:59:40 - 183° (S) 5,214 11.4 -22.9°
Reaches altitude 10° 13:01:07 10° 177° (S) 5,155 11.4 -22.8°
Maximum altitude 13:06:47 13° 155° (SSE) 5,198 11.6 -22.4°
Drops below altitude 10° 13:12:55 10° 134° (SE) 5,674 12.0 -21.8°
Sets 13:21:22 0° 112° (ESE) 6,792 12.8 -21.1°
